Content
SEND FEEDBACK

Daily
Averages
Monthly
Summary
Canada

VANCOUVER - UNIVERSITY, BRITISH COLUMBIA


Home > North America > Canada > British Columbia
Elevation: 249 feet     Latitude: 49 15N     Longitude: 123 15W

WEATHER
 
SELECT A DAY
Number of Records: 197,812;   Date Range: 1/1/95 - 10/24/14
 
SHARE

PRINT THIS DATA

[ ← Previous Day ]
WEATHER ALMANAC - MARCH 28, 2013
[ Next Day → ]
[ °C ]   °F
Weather ElementAverageHighLow
Temperature51.1 °F57.2 °F (3:00 pm)44.6 °F (7:00 am)
Dewpoint42.8 °F46.4 °F (1:00 pm)39.2 °F (7:00 am)
Humidity72.6 %93 % (4:00 am)52 % (5:00 pm)
Barometer30.08 in30.14 in (11:00 pm)30.02 in (1:00 am)
Wind Speed4.2 mph9.2 mph (1:00 pm)
Weather ElementAverage
Visibility26.4 mi
Wind DirectionSSE (171.5 °)

Weather ElementTotal
Precipitation---
Heating Degree Days14.1 (Base 65)
Growing Degree Days0.9 (Base 50)
Averaged from 27 records on March 28, 2013
WEATHER CONDITIONS BREAKOUT
WIND DIRECTION BREAKOUT
WEATHER BY HOUR - MARCH 28, 2013
[ °C ]   °F
Local TimeTemperatureDewpointHumidityBarometerVisibilityWind DirectionWind SpeedGust SpeedPrecipitationEventsConditions
1:00 AM50.0 °F41.0 °F71 %30.02 in20.0 miSW (230°)2.3 mphOvercast
2:00 AM50.0 °F41.0 °F71 %30.02 in20.0 miEast (90°)3.5 mphOvercast
3:00 AM48.2 °F44.6 °F87 %30.02 in20.0 miCalmOvercast
4:00 AM46.4 °F44.6 °F93 %30.03 in20.0 miCalmOvercast
5:00 AM48.0 °F41.0 °F69 %30.04 in19.0 miENE (70°)2.3 mphMostly Cloudy
5:00 AM48.2 °F41.0 °F76 %30.04 in20.0 miEast (80°)3.5 mphMostly Cloudy
6:00 AM46.4 °F41.0 °F81 %30.05 in20.0 miSSW (200°)3.5 mphScattered Clouds
7:00 AM44.6 °F39.2 °F81 %30.06 in20.0 miCalmPartly Cloudy
8:00 AM44.6 °F41.0 °F87 %30.07 in20.0 miNNW (340°)2.3 mphPartly Cloudy
9:00 AM50.0 °F41.0 °F71 %30.08 in30.0 miCalmPartly Cloudy
10:00 AM51.8 °F42.8 °F71 %30.09 in30.0 miWSW (240°)4.6 mphPartly Cloudy
11:00 AM52.0 °F44.0 °F67 %30.11 in28.0 miWSW (250°)6.9 mphScattered Clouds
11:00 AM51.8 °F44.6 °F76 %30.11 in30.0 miWSW (240°)6.9 mphPartly Cloudy
12:00 PM53.6 °F44.6 °F72 %30.11 in30.0 miWSW (240°)8.1 mphPartly Cloudy
1:00 PM53.6 °F46.4 °F77 %30.11 in30.0 miWest (270°)9.2 mphPartly Cloudy
2:00 PM55.4 °F46.4 °F72 %30.10 in30.0 miWest (270°)6.9 mphPartly Cloudy
3:00 PM57.2 °F44.6 °F63 %30.09 in30.0 miWSW (250°)9.2 mphPartly Cloudy
4:00 PM57.2 °F44.6 °F63 %30.09 in30.0 miWest (260°)8.1 mphPartly Cloudy
5:00 PM56.0 °F43.0 °F52 %30.09 in28.0 miWest (260°)5.8 mphScattered Clouds
5:00 PM55.4 °F42.8 °F63 %30.09 in30.0 miWest (260°)5.8 mphPartly Cloudy
6:00 PM55.4 °F42.8 °F63 %30.09 in30.0 miWNW (300°)5.8 mphPartly Cloudy
7:00 PM53.6 °F42.8 °F67 %30.09 in30.0 miSW (230°)4.6 mphPartly Cloudy
8:00 PM48.2 °F44.6 °F87 %30.10 in30.0 miWest (260°)2.3 mphPartly Cloudy
9:00 PM50.0 °F46.4 °F87 %30.11 in30.0 miCalmClear
10:00 PM51.8 °F41.0 °F67 %30.12 in30.0 miSE (130°)2.3 mphClear
11:00 PM49.0 °F40.0 °F61 %30.14 in28.0 miEast (80°)4.6 mph
11:00 PM50.0 °F39.2 °F66 %30.14 in30.0 miEast (80°)4.6 mphClear
Hourly data recorded from CYVR, located miles away from Vancouver - University, British Columbia







STORIES FROM OUR PARTNERS